Location: Kapla
(46.2483°N, 15.0094°E)
Time: 13:44:39
(UTC+00:00)

COSMO-SKYMED 1 - Pass Details

Date: 03 March 2021
Orbit: 621 x 623 km, 97.9° (Epoch: 18 April)

Event Time Altitude Azimuth Distance (km) Brightness Sun altitude
Rises 17:42:45 0° 7° (N) 2,917 6.0 -10.1°
Reaches altitude 10° 17:45:01 10° 1° (N) 2,006 5.2 -10.5°
Maximum altitude 17:49:10 44° 290° (WNW) 868 3.9 -11.2°
Drops below altitude 10° 17:53:16 10° 218° (SW) 1,989 5.7 -11.9°
Sets 17:55:31 0° 212° (SSW) 2,891 6.4 -12.3°
